Weather History for Mineola, TX

Change the Weather History Date:

Monday, September 24, 2012

  Actual Average (KTYR) Record (KTYR)
Temperature  
Mean Temperature 78 °F 74 °F  
Max Temperature 91 °F 84 °F 100 °F (1939)
Min Temperature 66 °F 63 °F 44 °F (1989)
Degree Days  
Heating Degree Days 0 0  
Month to date heating degree days 0  
Since 1 July heating degree days 0  
Cooling Degree Days 14 9  
Month to date cooling degree days 294  
Year to date cooling degree days 2216  
Growing Degree Days 28 (Base 50)    
Moisture  
Dew Point 65 °F    
Average Humidity 69    
Maximum Humidity 100    
Minimum Humidity 29    
Precipitation  
Precipitation 0.00 in 0.10 in 2.63 in (1941)
Month to date precipitation 2.72  
Year to date precipitation 31.98  
Snow  
Snow 0.00 in - - ()
Month to date snowfall  
Since 1 July snowfall  
Since 1 September snowfall  
Snow Depth -    
Sea Level Pressure  
Sea Level Pressure 30.10 in    
Wind  
Wind Speed 2 mph (South)    
Max Wind Speed 10 mph    
Max Gust Speed -    
Visibility 9 miles    
Events      
T = Trace of Precipitation, MM = Missing Value Source: NWS Daily Summary

Daily Weather History Graph

Daily Weather History Graph

Search for Another Location

Airport:

Trip Planner

Search our weather history database for the weather conditions in past years. The results will help you decide how hot, cold, wet, or windy it might be!

Date:

Astronomy

Sep. 24, 2012 Rise Set
Actual Time 7:11 AM CDT 7:15 PM CDT
Civil Twilight 6:47 AM CDT 7:39 PM CDT
Nautical Twilight 6:18 AM CDT 8:08 PM CDT
Astronomical Twilight 5:49 AM CDT 8:37 PM CDT
Moon 3:47 PM CDT (9/24) 1:45 AM CDT (9/24)
Length of Visible Light 12h 52m
Length of Day
12h 03m
Waxing Gibbous, 71% of the Moon is Illuminated
Sep 24
Waxing Gibbous
Sep 29
Full
Oct 8
Last Quarter
Oct 15
New
Oct 21
First Quarter

Hourly Weather History & Observations

Time (CDT) Temp. Heat Index Dew Point Humidity Pressure Visibility Wind Dir Wind Speed Gust Speed Precip Events Conditions
12:15 AM 71.6 °F - 68.0 °F 88% 30.14 in 10.0 mi Calm Calm - N/A   Clear
12:35 AM 69.8 °F - 68.0 °F 94% 30.14 in 10.0 mi Calm Calm - N/A   Clear
12:55 AM 71.6 °F - 68.0 °F 88% 30.14 in 10.0 mi Calm Calm - N/A   Clear
1:15 AM 71.6 °F - 68.0 °F 88% 30.14 in 10.0 mi Calm Calm - N/A   Clear
1:35 AM 71.6 °F - 68.0 °F 88% 30.13 in 10.0 mi Calm Calm - N/A   Clear
1:55 AM 69.8 °F - 68.0 °F 94% 30.13 in 10.0 mi Calm Calm - N/A   Clear
2:15 AM 69.8 °F - 68.0 °F 94% 30.14 in 9.0 mi Calm Calm - N/A   Clear
2:55 AM 69.8 °F - 68.0 °F 94% 30.14 in 7.0 mi Calm Calm - N/A   Clear
3:15 AM 69.8 °F - 68.0 °F 94% 30.14 in 7.0 mi Calm Calm - N/A   Clear
3:35 AM 69.8 °F - 68.0 °F 94% 30.13 in 7.0 mi Calm Calm - N/A   Clear
3:55 AM 69.8 °F - 68.0 °F 94% 30.13 in 8.0 mi Calm Calm - N/A   Clear
4:15 AM 69.8 °F - 66.2 °F 88% 30.13 in 8.0 mi Calm Calm - N/A   Clear
4:55 AM 68.0 °F - 66.2 °F 94% 30.13 in 8.0 mi Calm Calm - N/A   Clear
5:15 AM 66.2 °F - 66.2 °F 100% 30.13 in 7.0 mi Calm Calm - N/A   Clear
5:35 AM 66.2 °F - 66.2 °F 100% 30.13 in 7.0 mi Calm Calm - N/A   Clear
5:55 AM 66.2 °F - 66.2 °F 100% 30.14 in 5.0 mi Calm Calm - N/A   Clear
6:15 AM 66.2 °F - 66.2 °F 100% 30.14 in 6.0 mi Calm Calm - N/A   Clear
6:35 AM 66.2 °F - 66.2 °F 100% 30.15 in 5.0 mi Calm Calm - N/A   Clear
6:55 AM 66.2 °F - 66.2 °F 100% 30.15 in 5.0 mi Calm Calm - N/A   Clear
7:15 AM 66.2 °F - 66.2 °F 100% 30.15 in 3.0 mi Calm Calm - N/A   Clear
7:35 AM 66.2 °F - 66.2 °F 100% 30.15 in 4.0 mi Calm Calm - N/A   Clear
7:55 AM 66.2 °F - 66.2 °F 100% 30.16 in 4.0 mi Calm Calm - N/A   Clear
8:15 AM 66.2 °F - 66.2 °F 100% 30.16 in 5.0 mi Calm Calm - N/A   Clear
8:35 AM 68.0 °F - 68.0 °F 100% 30.16 in 7.0 mi SE 3.5 mph - N/A   Clear
8:55 AM 69.8 °F - 69.8 °F 100% 30.16 in 7.0 mi Calm Calm - N/A   Clear
9:15 AM 71.6 °F - 68.0 °F 88% 30.17 in 8.0 mi Calm Calm - N/A   Clear
9:35 AM 71.6 °F - 69.8 °F 94% 30.17 in 10.0 mi SE 3.5 mph - N/A   Clear
9:55 AM 75.2 °F - 69.8 °F 83% 30.17 in 10.0 mi SE 5.8 mph - N/A   Clear
10:15 AM 78.8 °F - 69.8 °F 74% 30.17 in 9.0 mi SSW 4.6 mph - N/A   Clear
10:35 AM 80.6 °F 83.9 °F 69.8 °F 70% 30.17 in 9.0 mi South 3.5 mph - N/A   Clear
10:55 AM 80.6 °F 83.9 °F 69.8 °F 70% 30.16 in 10.0 mi SSW 5.8 mph - N/A   Clear
11:15 AM 82.4 °F 86.3 °F 69.8 °F 66% 30.16 in 9.0 mi SSW 4.6 mph - N/A   Clear
11:35 AM 84.2 °F 88.4 °F 69.8 °F 62% 30.15 in 10.0 mi SSW 9.2 mph - N/A   Clear
11:55 AM 84.2 °F 88.4 °F 69.8 °F 62% 30.15 in 10.0 mi SSW 9.2 mph - N/A   Clear
12:15 PM 86.0 °F 88.2 °F 66.2 °F 51% 30.14 in 10.0 mi SSW 10.4 mph - N/A   Clear
12:35 PM 87.8 °F 90.4 °F 66.2 °F 49% 30.14 in 10.0 mi SW 5.8 mph - N/A   Clear
12:55 PM 87.8 °F 90.4 °F 66.2 °F 49% 30.13 in 10.0 mi South 6.9 mph - N/A   Clear
1:15 PM 87.8 °F 90.4 °F 66.2 °F 49% 30.12 in 10.0 mi SSW 5.8 mph - N/A   Clear
1:35 PM 89.6 °F 91.1 °F 64.4 °F 43% 30.11 in 10.0 mi SSW 8.1 mph - N/A   Clear
1:55 PM 89.6 °F 90.1 °F 62.6 °F 40% 30.10 in 10.0 mi SW 8.1 mph - N/A   Clear
2:15 PM 89.6 °F 89.5 °F 60.8 °F 38% 30.08 in 10.0 mi SSW 5.8 mph - N/A   Clear
2:35 PM 89.6 °F 90.1 °F 62.6 °F 40% 30.07 in 10.0 mi SSW 6.9 mph - N/A   Clear
2:55 PM 91.4 °F 90.7 °F 59.0 °F 34% 30.05 in 10.0 mi South 8.1 mph - N/A   Clear
3:15 PM 91.4 °F 89.4 °F 55.4 °F 29% 30.04 in 10.0 mi SSW 6.9 mph - N/A   Clear
3:35 PM 91.4 °F 90.7 °F 59.0 °F 34% 30.03 in 10.0 mi SSW 8.1 mph - N/A   Clear
3:55 PM 91.4 °F 89.4 °F 55.4 °F 29% 30.02 in 10.0 mi SSW 9.2 mph - N/A   Clear
4:15 PM 91.4 °F 89.4 °F 55.4 °F 29% 30.02 in 10.0 mi SSW 5.8 mph - N/A   Clear
4:35 PM 91.4 °F 89.9 °F 57.2 °F 31% 30.02 in 10.0 mi SSW 6.9 mph - N/A   Clear
4:55 PM 91.4 °F 89.4 °F 55.4 °F 29% 30.01 in 10.0 mi SSW 6.9 mph - N/A   Clear
5:15 PM 91.4 °F 89.4 °F 55.4 °F 29% 30.01 in 10.0 mi SSW 5.8 mph - N/A   Clear
5:35 PM 91.4 °F 89.9 °F 57.2 °F 31% 30.01 in 10.0 mi SSW 5.8 mph - N/A   Clear
5:55 PM - - - N/A% 30.00 in 10.0 mi South 3.5 mph - N/A   Clear
6:55 PM 86.0 °F 86.6 °F 62.6 °F 45% 30.00 in 10.0 mi Calm Calm - N/A   Clear
7:15 PM 84.2 °F 85.0 °F 62.6 °F 48% 30.00 in 10.0 mi SSE 4.6 mph - N/A   Clear
8:15 PM 82.4 °F 83.4 °F 62.6 °F 51% 30.00 in 10.0 mi SSE 3.5 mph - N/A   Clear
8:35 PM 80.6 °F 81.8 °F 62.6 °F 54% 30.01 in 10.0 mi SSE 4.6 mph - N/A   Clear
8:55 PM 82.4 °F 83.4 °F 62.6 °F 51% 30.01 in 10.0 mi SSE 4.6 mph - N/A   Clear
9:15 PM 82.4 °F 83.4 °F 62.6 °F 51% 30.02 in 10.0 mi SSE 4.6 mph - N/A   Clear
9:35 PM 80.6 °F 81.8 °F 62.6 °F 54% 30.02 in 10.0 mi SSE 3.5 mph - N/A   Clear
9:55 PM 80.6 °F 81.8 °F 62.6 °F 54% 30.03 in 10.0 mi South 4.6 mph - N/A   Clear
10:15 PM 80.6 °F 81.8 °F 62.6 °F 54% 30.03 in 10.0 mi SSE 5.8 mph - N/A   Clear
10:55 PM 80.6 °F 81.8 °F 62.6 °F 54% 30.02 in 10.0 mi SSE 5.8 mph - N/A   Clear
11:15 PM 78.8 °F - 62.6 °F 57% 30.02 in 10.0 mi South 6.9 mph - N/A   Clear
11:55 PM 80.6 °F 82.3 °F 64.4 °F 58% 30.02 in 10.0 mi South 6.9 mph - N/A   Clear